FENGYUN 1C DEB

Satellite information

Favourite Embed

Satellite Type and Status

DEBRISIN ORBIT

Key statistics

Satellite FENGYUN 1C DEB at a glance.

Uptime

9715

Days in orbit

Revolutions

≈ 14.0

Per day

Orbit

SSO

Sun Synchronous Orbit

Inclination

98.3

Latest

Satellite identification and parameters

Extended collection of information and parameters for FENGYUN 1C DEB.

Object identification

Identified? True

Debris? True

Object name: FENGYUN 1C DEB

International designator: 1999-025DKZ

Object number (NORAD): 35121

Object ID (CCSDS): 35121

Country: PEOPLES REPUBLIC OF CHINA (PRC)

Current information (Y/N): Y

RCS size: SMALL

Orbital parameters

Period: 102.511 minutes

Inclination: 98.3025 deg

SMA: 7255.587 km

Apoapsis: 992.069 km

Periapsis: 762.834 km

RAAN: 192.694 deg

Eccentricy: 0.0157971

Argument of periapsis: 150.2058 deg

Mean anomaly: 210.8223 deg

Mean motion: 14.04733583 rev/day

Mean motion (dot): 0.00000663 rev/day2

B* drag term: 0.00039097454 1/REarth

Two-line elements (TLE)

Creation date: Nov. 24, 2025, 6:12 p.m.

Reference frame: TEME

Reference center: EARTH

Epoch: Nov. 23, 2025, 8:23 p.m. UTC

TLE line 0: 0 FENGYUN 1C DEB

TLE line 1: 1 35121U 99025DKZ 25327.84979149 .00000663 00000-0 39097-3 0 9993

TLE line 2: 2 35121 98.3025 192.6940 0157971 150.2058 210.8223 14.04733583608261

Live tracking on map

Real-time ground track for satellite FENGYUN 1C DEB.

In-orbit conjunctions

A list of the most updated potential collisions computed for object FENGYUN 1C DEB.

Target Orbit TCA Probability of collision Miss distance Type
FENGYUN 1C DEB SSO 2025-05-28 00:58:51 0.0001496767 189.0 (m) DEBRIS
METEOR 2-11 DEB LEO 2024-12-22 14:27:10 0.000234815 37.0 (m) DEBRIS
FENGYUN 1C DEB SSO 2024-11-12 04:30:33 0.0002158669 961.0 (m) DEBRIS
COSMOS 1447 LEO 2024-10-17 02:10:39 0.0002003344 458.0 (m) PAYLOAD

Associated space launch

Chinese polar orbiting meteorological satellite

FENGYUN 1C DEB was lifted into orbit during the mission ‘Long March 4B | Feng Yun 1C’, on board a Long March 4B space rocket.

The launch took place on May 10, 1999, 1:33 a.m. from Launch Complex 7.

For more information about the launch, click the button.

Launch to space Long March 4B | Feng Yun 1C
Long March 4B | Feng Yun 1C

Agency: N/A

Status: Launch Successful

Launch date: May 10, 1999, 1:33 a.m. UTC

Rocket: Long March 4B

Launch pad: Launch Complex 7

Location: Taiyuan Satellite Launch Center, People's Republic of China

...

Latest news about this satellite

There are no fresh news available about this satellite. Check back as we update our databases every day.


Newsletter sign-up

Weekly statistics, charts and insights to help you stay on top of the space industry.